Location: Squirrel Cove
(50.1074°N, 124.9139°W)
Time: 00:00:13
(UTC-08:00)

BlueWalker 3 - Pass Details

Date: 04 December 2022
Orbit: 499 x 517 km, 53.2° (Epoch: 29 January)

Event Time Altitude Azimuth Distance (km) Brightness Sun altitude
Rises 16:48:02 0° 270° (W) 2,634 6.8 -4.8°
Reaches altitude 10° 16:50:17 10° 275° (W) 1,744 5.7 -5.1°
Maximum altitude 16:54:09 55° 353° (N) 624 2.3 -5.7°
Drops below altitude 10° 16:58:01 10° 73° (ENE) 1,733 4.0 -6.2°
Enters shadow 16:58:32 - 74° (ENE) 1,936 4.3 -6.3°
